STARLINK-1487, 45758

Orbit data source: Space-Track

STARLINK-1487, 45758 is a payload satellite owned by SpaceX/Seattle (US) in LEO that was launched on Sat, 13 Jun 2020 UTC via an FALCON 9 launch vehicle from the Air Force Eastern Test Range (AFETR). Payload-class satellites include a variety of spacecraft equipped with specific instruments for various scientific and technological missions. These include communications satellites like Starlink; space stations such as the ISS; scientific satellites like the Hubble; Earth observation satellites from companies like Planet Labs, Umbra, and HawkEye 360; GPS; miniature CubeSats for education and research; and military/defense satellites.

Loading next visibility...
Identifier
45758, 2020-038AE
Orbit
LEO
Last TLE update
12 hours ago
Origin
Manufacturer
SpaceX/Seattle
Mission
Partially operational Commercial Communications
Bus & Motor
STARLINK, Unknown motor
Mass
260 kg wet, ~248 kg dry
Launch date (UTC)
2020-06-13 (5 years ago)
Launch vehicle
FALCON 9
Launch site
Air Force Eastern Test Range (AFETR)
Object type
Payload
Rocket body
Debris
Shape & HBR
Box + 1 Pan, 4.4 m
Radar Cross Section
13.562 m², Large (>1 m²)

Expand to show TLE details & history

TLE from 12 hours ago
0 STARLINK-1487
1 45758U 20038AE  25198.91667824  .00251402  00000-0  90855-3 0  9994
2 45758  53.0182   4.7846 0002355 317.2229 277.8878 15.87418524  6008
Epoch: 2025-07-17T22:00Z
TLE epoch observation values (Epoch: 2025-07-17T22:00:00.999Z)
Latitude
-41.12804°
Longitude
-40.36084°
Altitude
322.914 km
Speed
7.714 km/s
True Right ascension
15h 02m 28s
True Declination
-40° 56' 48"
Sunlit
Object was in full shadow at epoch
Visualization orbit readout
Latitude
3.86189°
Longitude
-86.59746°
Altitude
310.56 km
Speed
7.723 km/s
Apparent Right ascension
11h 22m 52s
Apparent Declination
-17° 38' 36"
Sunlit
Object is in daylight
Visualization observer readout
Local Sidereal Time
22:35:29
Azimuth
331.882° NNW
Elevation
-65.482°
Doppler factor
1
Orbital elements
Apogee altitude
311.384 km
Perigee altitude
308.234 km
Semi-major axis
6,687.946 km
Eccentricity
0.00024
Inclination
53.0182°
RAAN
4.7846°
Arg. of periapsis
317.2229°
True anomaly
277.86107°
Mean anomaly
277.8878°
Eccentric anomaly
277.87443°
Mean motion
3.9683 °/min
Orbital period
90.72 mins
BSTAR
0.00090855
Loading maneuver chart data...
Loading SW <> Apogee altitude chart data...
|